Location: Conflandey
(47.7287°N, 6.0456°E)
Time: 02:18:16
(UTC+00:00)

Spot 2 - Pass Details

Date: 24 October 2021
Orbit: 570 x 772 km, 98.7° (Epoch: 28 November)

Event Time Altitude Azimuth Distance (km) Brightness Sun altitude
Rises 17:45:01 0° 152° (SSE) 2,806 7.2 -13.0°
Reaches altitude 10° 17:47:09 10° 148° (SSE) 1,929 6.3 -13.4°
Maximum altitude 17:51:14 57° 70° (ENE) 734 4.1 -14.1°
Drops below altitude 10° 17:55:35 10° 353° (N) 2,048 6.8 -14.8°
Sets 17:57:53 0° 349° (N) 2,997 7.7 -15.2°
